GW1804 Weather Reports


time (UTC)temp
F
wind
direction
speed
knots
gust
knots
rain 1hr
in
rain 24hr
in
rain mn
in
humidity
%
barometer
mb
20260502162533 62 26 0.0 1.7 0.00 0.00 0.00 88 1014.7
20260502162035 62 0 0.0 1.7 0.00 0.00 0.00 88 1014.6
20260502161545 62 0 0.0 2.6 0.00 0.00 0.00 88 1014.5
20260502161033 62 0 0.9 4.3 0.00 0.00 0.00 88 1014.5
20260502160531 62 294 0.9 4.3 0.00 0.00 0.00 88 1014.7
20260502152030 62 0 0.0 1.7 0.00 0.00 0.00 89 1014.6
20260502151556 62 0 0.0 0.0 0.00 0.00 0.00 89 1014.6
20260502151034 62 0 0.0 0.0 0.00 0.00 0.00 89 1014.4
20260502150534 62 0 0.0 0.0 0.00 0.00 0.00 89 1014.4
20260502130532 61 0 0.0 0.0 0.00 0.00 0.00 88 1013.7
20260502123534 61 0 0.0 0.9 0.00 0.00 0.00 88 1013.7
20260502123047 61 0 0.0 1.7 0.00 0.00 0.00 88 1013.7
20260502122535 61 0 0.0 1.7 0.00 0.00 0.00 88 1013.6
20260502122032 61 0 0.0 0.9 0.00 0.00 0.00 88 1013.5
20260502121600 61 0 0.0 1.7 0.00 0.00 0.00 88 1013.5
20260502121037 61 0 0.0 1.7 0.00 0.00 0.00 88 1013.6
20260502120532 61 0 0.0 0.9 0.00 0.00 0.00 88 1013.5
20260502115534 61 0 0.0 0.9 0.00 0.00 0.00 88 1013.4
20260502115031 61 0 0.0 0.0 0.00 0.00 0.00 88 1013.4
20260502114550 61 0 0.0 0.0 0.00 0.00 0.00 88 1013.3
20260502114035 61 0 0.0 0.0 0.00 0.00 0.00 88 1013.3
20260502113533 61 0 0.0 1.7 0.00 0.00 0.00 88 1013.3
20260502113045 61 0 0.0 1.7 0.00 0.00 0.00 88 1013.2
20260502112531 61 0 0.0 0.9 0.00 0.00 0.00 88 1013.3
20260502112031 61 0 0.0 0.9 0.00 0.00 0.00 88 1013.2
20260502111556 61 0 0.0 0.0 0.00 0.00 0.00 88 1013.3
20260502111035 61 0 0.0 0.0 0.00 0.00 0.00 88 1013.3
20260502110532 61 0 0.0 0.9 0.00 0.00 0.00 88 1013.4
20260502110050 61 0 0.0 0.9 0.00 0.00 0.00 88 1013.3
20260502105538 61 0 0.0 4.3 0.00 0.00 0.00 88 1013.2
20260502105034 61 0 0.0 4.3 0.00 0.00 0.00 88 1013.2
20260502104553 61 212 0.9 4.3 0.00 0.00 0.00 88 1013.2
20260502104037 61 260 0.0 1.7 0.00 0.00 0.00 88 1013.2
20260502103531 61 0 0.0 0.9 0.00 0.00 0.00 88 1013.2
20260502103053 61 0 0.0 0.9 0.00 0.00 0.00 88 1013.2
20260502102537 61 0 0.0 0.9 0.00 0.00 0.00 88 1013.2
20260502102035 61 0 0.0 0.0 0.00 0.00 0.00 88 1013.2
20260502101605 61 0 0.0 0.9 0.00 0.00 0.00 88 1013.2
20260502101035 61 0 0.0 0.9 0.00 0.00 0.00 88 1013.1
20260502100535 61 0 0.0 2.6 0.00 0.00 0.00 88 1013.1
20260502100116 61 0 0.0 2.6 0.00 0.00 0.00 88 1013.0
20260502091034 61 0 0.0 1.7 0.00 0.00 0.00 87 1013.2
20260502090534 61 210 0.0 0.9 0.00 0.00 0.00 87 1013.1
20260502071034 62 277 0.0 1.7 0.00 0.00 0.00 86 1013.8
20260502070535 62 0 0.0 1.7 0.00 0.00 0.00 86 1013.9
20260502070054 62 0 0.0 1.7 0.00 0.00 0.00 86 1014.0
20260502065531 62 0 0.0 1.7 0.00 0.00 0.00 86 1013.9
20260502065033 62 327 0.0 1.7 0.00 0.00 0.00 86 1014.0
20260502064552 62 0 0.0 1.7 0.00 0.00 0.00 86 1013.9
20260502064031 62 352 0.0 1.7 0.00 0.00 0.00 86 1013.9
20260502063530 62 0 0.0 0.9 0.00 0.00 0.00 86 1013.9
20260502063057 62 0 0.0 0.9 0.00 0.00 0.00 86 1013.8
20260502062531 62 304 0.0 2.6 0.00 0.00 0.00 86 1013.9
20260502062032 62 275 0.0 2.6 0.00 0.00 0.00 86 1013.9
20260502061547 62 229 0.0 2.6 0.00 0.00 0.00 86 1013.9
20260502061031 62 0 0.0 1.7 0.00 0.00 0.00 86 1013.9
20260502060531 62 0 0.0 2.6 0.00 0.00 0.00 86 1013.9
20260502060107 62 229 0.0 2.6 0.00 0.00 0.00 86 1013.9
20260502055531 62 229 0.9 2.6 0.00 0.00 0.00 86 1014.0
20260502055031 62 215 0.0 2.6 0.00 0.00 0.00 86 1014.0
20260502054549 62 0 0.0 2.6 0.00 0.00 0.00 86 1014.0
20260502054030 62 252 0.0 2.6 0.00 0.00 0.00 86 1013.9
20260502053531 62 0 0.9 2.6 0.00 0.00 0.00 86 1013.9
20260502053100 62 0 0.0 2.6 0.00 0.00 0.00 86 1014.0
20260502052531 62 0 0.9 2.6 0.00 0.00 0.00 86 1014.0
20260502052034 62 289 0.9 1.7 0.00 0.00 0.00 86 1013.9
20260502051559 62 304 0.0 2.6 0.00 0.00 0.00 86 1013.9
20260502051031 62 0 0.0 2.6 0.00 0.00 0.00 86 1013.9
20260502050531 62 284 0.9 1.7 0.00 0.00 0.00 86 1013.8
20260502050056 62 0 0.0 0.9 0.00 0.00 0.00 86 1013.9
20260502045537 62 0 0.0 2.6 0.00 0.00 0.00 86 1013.9
20260502045032 62 0 0.9 2.6 0.00 0.00 0.00 85 1013.8
20260502044546 62 287 0.0 1.7 0.00 0.00 0.00 85 1013.9
20260502044031 62 0 0.9 2.6 0.00 0.00 0.00 85 1013.8
20260502043531 62 0 0.9 2.6 0.00 0.00 0.00 85 1013.7
20260502043044 62 296 0.9 2.6 0.00 0.00 0.00 85 1013.8
20260502042531 62 305 0.0 1.7 0.00 0.00 0.00 85 1013.8
20260502042032 62 0 0.0 0.9 0.00 0.00 0.00 84 1013.7
20260502041545 62 0 0.0 1.7 0.00 0.00 0.00 84 1013.7
20260502041031 62 0 0.0 1.7 0.00 0.00 0.00 84 1013.7
20260502040534 62 0 0.0 1.7 0.00 0.00 0.00 84 1013.7
20260502040048 62 0 0.0 3.5 0.00 0.00 0.00 84 1013.6
20260502035531 62 245 1.7 3.5 0.00 0.00 0.00 84 1013.6
20260502035031 62 260 0.0 2.6 0.00 0.00 0.00 84 1013.5
20260502034548 62 0 0.0 2.6 0.00 0.00 0.00 84 1013.5
20260502034033 62 0 0.0 0.9 0.00 0.00 0.00 84 1013.4
20260502033531 62 0 0.0 2.6 0.00 0.00 0.00 84 1013.3
20260502033052 62 0 0.0 2.6 0.00 0.00 0.00 84 1013.3
20260502032531 62 19 0.9 2.6 0.00 0.00 0.00 84 1013.3
20260502032032 62 321 0.9 2.6 0.00 0.00 0.00 84 1013.2
20260502031545 62 0 0.0 1.7 0.00 0.00 0.00 84 1013.2
20260502031031 62 0 0.0 3.5 0.00 0.00 0.00 84 1013.1
20260502030534 62 276 0.9 3.5 0.00 0.00 0.00 84 1013.2
20260502030045 63 284 0.9 3.5 0.00 0.00 0.00 84 1013.2
20260502025534 63 324 0.9 3.5 0.00 0.00 0.00 84 1013.2
20260502025030 63 0 0.9 3.5 0.00 0.00 0.00 84 1013.1
20260502024544 63 291 1.7 3.5 0.00 0.00 0.00 83 1013.1
20260502024031 63 229 0.9 3.5 0.00 0.00 0.00 83 1013.0
20260502023531 63 306 0.9 2.6 0.00 0.00 0.00 83 1012.9
20260502023040 63 13 0.0 3.5 0.00 0.00 0.00 83 1012.8
20260502022530 63 327 0.9 3.5 0.00 0.00 0.00 83 1012.8
20260502022031 63 259 0.9 4.3 0.00 0.00 0.00 83 1012.6
20260502021545 63 309 0.9 5.2 0.00 0.00 0.00 82 1012.6
20260502021032 63 312 1.7 6.1 0.00 0.00 0.00 82 1012.6
20260502020531 63 246 2.6 6.1 0.00 0.00 0.00 82 1012.5
20260502020045 63 223 3.5 6.1 0.00 0.00 0.00 82 1012.6
20260502015531 63 248 1.7 7.0 0.00 0.00 0.00 81 1012.5
20260502015031 64 279 1.7 7.0 0.00 0.00 0.00 81 1012.5
20260502014544 64 297 3.5 7.0 0.00 0.00 0.00 81 1012.5
20260502014030 64 292 2.6 6.1 0.00 0.00 0.00 81 1012.5
20260502013530 64 271 1.7 6.1 0.00 0.00 0.00 80 1012.5
20260502013054 64 263 2.6 6.1 0.00 0.00 0.00 80 1012.4
20260502012531 64 238 1.7 6.1 0.00 0.00 0.00 80 1012.3
20260502012032 64 288 2.6 6.1 0.00 0.00 0.00 80 1012.3
20260502011602 64 246 0.9 6.1 0.00 0.00 0.00 80 1012.3
20260502011032 65 304 2.6 6.1 0.00 0.00 0.00 79 1012.3
20260502010535 65 313 2.6 8.7 0.00 0.00 0.00 79 1012.3
20260502010047 65 256 1.7 8.7 0.00 0.00 0.00 78 1012.2
20260502005535 65 282 2.6 7.0 0.00 0.00 0.00 78 1012.2
20260502005036 66 315 2.6 7.0 0.00 0.00 0.00 78 1012.2
20260502004557 66 263 3.5 7.0 0.00 0.00 0.00 76 1012.3
20260502004035 67 217 2.6 7.0 0.00 0.00 0.00 76 1012.2
20260502003535 67 263 3.5 7.0 0.00 0.00 0.00 76 1012.2
20260502003045 67 325 2.6 7.0 0.00 0.00 0.00 76 1012.0
20260502002535 67 281 3.5 7.0 0.00 0.00 0.00 76 1012.1
20260502002037 67 231 3.5 7.0 0.00 0.00 0.00 75 1012.1
20260502001544 68 284 3.5 7.0 0.00 0.00 0.00 75 1012.0
20260502001035 68 291 3.5 7.0 0.00 0.00 0.00 75 1012.0
20260502000535 68 256 1.7 7.0 0.00 0.00 0.00 75 1011.9
20260502000051 68 269 2.6 7.8 0.00 0.00 0.00 75 1012.0
20260501235533 68 296 2.6 7.8 0.00 0.00 0.00 75 1011.9
20260501235037 68 272 4.3 7.8 0.00 0.00 0.00 74 1012.0
20260501234549 68 319 2.6 7.8 0.00 0.00 0.00 74 1012.0
20260501234036 68 306 3.5 7.8 0.00 0.00 0.00 73 1012.1
20260501233534 68 218 3.5 7.8 0.00 0.00 0.00 74 1012.0
20260501233046 68 314 3.5 7.0 0.00 0.00 0.00 74 1012.0
20260501232535 68 236 3.5 7.0 0.00 0.00 0.00 73 1012.1
20260501232034 68 279 3.5 7.0 0.00 0.00 0.00 73 1012.0
20260501231551 68 292 3.5 7.0 0.00 0.00 0.00 73 1012.0
20260501231036 69 284 3.5 9.6 0.00 0.00 0.00 73 1012.1
20260501230536 69 321 3.5 9.6 0.00 0.00 0.00 73 1012.2
20260501230050 69 299 2.6 8.7 0.00 0.00 0.00 74 1012.2
20260501225538 69 251 2.6 8.7 0.00 0.00 0.00 73 1012.3
20260501225036 69 313 3.5 9.6 0.00 0.00 0.00 72 1012.3
20260501224552 69 304 3.5 9.6 0.00 0.00 0.00 73 1012.5
20260501224034 69 273 3.5 8.7 0.00 0.00 0.00 72 1012.4
20260501223538 69 209 4.3 10.4 0.00 0.00 0.00 72 1012.5
20260501223044 69 317 4.3 10.4 0.00 0.00 0.00 72 1012.5
20260501222535 69 307 2.6 7.8 0.00 0.00 0.00 71 1012.5
20260501222035 70 273 3.5 7.8 0.00 0.00 0.00 72 1012.7
20260501221605 70 308 3.5 7.8 0.00 0.00 0.00 71 1012.7
20260501221038 70 273 2.6 7.8 0.00 0.00 0.00 71 1012.7
20260501220535 70 307 3.5 7.8 0.00 0.00 0.00 71 1012.7
20260501220052 70 306 3.5 7.0 0.00 0.00 0.00 72 1012.8
20260501215538 69 219 2.6 7.8 0.00 0.00 0.00 73 1012.9
20260501215032 69 103 3.5 8.7 0.00 0.00 0.00 73 1012.9
20260501214552 69 279 4.3 8.7 0.00 0.00 0.00 72 1013.0
20260501214034 68 280 2.6 8.7 0.00 0.00 0.00 73 1013.1
20260501213532 69 284 4.3 8.7 0.00 0.00 0.00 73 1013.2
20260501213050 68 268 4.3 8.7 0.00 0.00 0.00 73 1013.2
20260501212531 68 309 4.3 8.7 0.00 0.00 0.00 73 1013.2
20260501212032 68 286 3.5 8.7 0.00 0.00 0.00 73 1013.2
20260501211548 68 239 4.3 8.7 0.00 0.00 0.00 73 1013.3
20260501211031 68 317 4.3 8.7 0.00 0.00 0.00 73 1013.4
20260501210532 69 262 4.3 12.2 0.00 0.00 0.00 73 1013.3
20260501210051 69 325 4.3 12.2 0.00 0.00 0.00 72 1013.3
20260501205532 69 315 5.2 12.2 0.00 0.00 0.00 72 1013.3
20260501205032 69 289 4.3 7.8 0.00 0.00 0.00 72 1013.2
20260501204553 69 277 3.5 8.7 0.00 0.00 0.00 73 1013.3
20260501204031 69 302 3.5 8.7 0.00 0.00 0.00 72 1013.3
20260501203531 69 263 3.5 7.8 0.00 0.00 0.00 71 1013.2
20260501203047 69 246 3.5 8.7 0.00 0.00 0.00 71 1013.2
20260501202533 69 283 4.3 8.7 0.00 0.00 0.00 72 1013.2
20260501202033 69 311 3.5 7.8 0.00 0.00 0.00 73 1013.2
20260501201553 68 306 4.3 7.8 0.00 0.00 0.00 72 1013.2
20260501201033 68 317 4.3 7.8 0.00 0.00 0.00 73 1013.2
20260501200531 68 278 3.5 7.8 0.00 0.00 0.00 73 1013.4
20260501200051 68 288 4.3 8.7 0.00 0.00 0.00 72 1013.4
20260501195531 68 270 3.5 8.7 0.00 0.00 0.00 73 1013.4
20260501195032 68 207 3.5 7.8 0.00 0.00 0.00 72 1013.5
20260501194550 68 271 3.5 8.7 0.00 0.00 0.00 72 1013.5
20260501194032 68 260 3.5 8.7 0.00 0.00 0.00 72 1013.5
20260501193534 68 294 2.6 7.0 0.00 0.00 0.00 72 1013.4
20260501193048 68 229 2.6 7.0 0.00 0.00 0.00 72 1013.5
20260501192532 68 352 3.5 7.0 0.00 0.00 0.00 72 1013.5
20260501192032 68 256 3.5 7.8 0.00 0.00 0.00 72 1013.6
20260501191545 68 281 2.6 7.8 0.00 0.00 0.00 72 1013.7
20260501191032 68 287 3.5 7.0 0.00 0.00 0.00 74 1013.8
20260501190532 67 241 3.5 7.0 0.00 0.00 0.00 73 1013.9
20260501190057 67 269 3.5 7.0 0.00 0.00 0.00 73 1013.9
20260501185531 67 255 2.6 8.7 0.00 0.00 0.00 74 1014.0
20260501185039 67 310 3.5 8.7 0.00 0.00 0.00 74 1014.1
20260501184556 67 311 3.5 8.7 0.00 0.00 0.00 75 1014.2
20260501184033 67 261 2.6 8.7 0.00 0.00 0.00 75 1014.2
20260501183533 67 306 2.6 7.8 0.00 0.00 0.00 74 1014.3
20260501183044 67 288 2.6 7.0 0.00 0.00 0.00 73 1014.4
20260501182532 67 255 2.6 7.0 0.00 0.00 0.00 73 1014.5
20260501182035 67 271 2.6 7.0 0.00 0.00 0.00 73 1014.5
20260501181549 67 317 0.9 5.2 0.00 0.00 0.00 73 1014.5
20260501181035 67 341 0.9 5.2 0.00 0.00 0.00 75 1014.5
20260501180535 66 317 0.9 4.3 0.00 0.00 0.00 74 1014.5
20260501180052 66 0 0.0 5.2 0.00 0.00 0.00 73 1014.5
20260501175531 65 0 1.7 5.2 0.00 0.00 0.00 74 1014.6
20260501175034 65 250 0.9 3.5 0.00 0.00 0.00 75 1014.6
20260501174547 65 0 0.0 3.5 0.00 0.00 0.00 75 1014.7
20260501174033 64 221 1.7 4.3 0.00 0.00 0.00 74 1014.7
20260501173534 64 235 0.9 4.3 0.00 0.00 0.00 75 1014.7
20260501173045 64 350 1.7 4.3 0.00 0.00 0.00 77 1014.7
20260501172536 64 0 0.9 3.5 0.00 0.00 0.00 76 1014.7
20260501172035 64 298 0.9 3.5 0.00 0.00 0.00 76 1014.8
20260501171541 64 310 0.0 3.5 0.00 0.00 0.00 76 1014.9
20260501171035 64 0 0.9 3.5 0.00 0.00 0.00 76 1014.9
20260501170535 64 302 0.0 2.6 0.00 0.00 0.00 77 1014.9
20260501170043 63 0 0.0 1.7 0.00 0.00 0.00 77 1014.9
20260501165535 63 0 0.0 2.6 0.00 0.00 0.00 77 1014.9
20260501165035 63 0 0.0 2.6 0.00 0.00 0.00 78 1015.0
20260501164545 63 261 0.0 2.6 0.00 0.00 0.00 78 1015.0
20260501164034 63 5 0.0 1.7 0.00 0.00 0.00 78 1015.0
20260501163532 62 0 0.0 1.7 0.00 0.00 0.00 78 1014.9
20260501163057 62 0 0.0 2.6 0.00 0.00 0.00 78 1015.0